Total_Precipitation_Accumulation
0.09 0.17 0.20 0.21 0.20 0.18 0.13 0.12 0.17 0.22 0.35 0.50 0.60 0.73 0.65 0.63 0.69 0.70 0.57 0.50 0.40 0.36 0.47 0.58 0.65 0.65 0.71 0.79 0.87 0.99 1.00 0.93 0.88 0.90 0.93 0.96 0.97 1.00 1.03 1.09 1.12 1.29 1.34 1.44
0.11 0.14 0.14 0.16 0.18 0.15 0.11 0.09 0.10 0.18 0.36 0.52 0.65 0.68 0.64 0.54 0.52 0.66 0.59 0.50 0.48 0.45 0.53 0.59 0.60 0.60 0.58 0.61 0.72 0.86 0.91 0.95 0.98 0.96 0.90 0.95 0.99 0.99 1.03 1.12 1.24 1.35 1.40 1.52
0.21 0.17 0.18 0.25 0.20 0.17 0.14 0.12 0.13 0.23 0.37 0.53 0.66 0.59 0.63 0.58 0.50 0.50 0.46 0.44 0.51 0.53 0.56 0.57 0.56 0.53 0.52 0.52 0.62 0.82 0.93 0.94 1.03 1.12 1.03 1.10 1.14 1.14 1.16 1.23 1.34 1.40 1.52 1.56
0.28 0.31 0.37 0.28 0.23 0.22 0.24 0.24 0.23 0.27 0.38 0.59 0.76 0.66 0.59 0.58 0.57 0.52 0.41 0.41 0.47 0.47 0.48 0.51 0.51 0.52 0.50 0.52 0.60 0.80 0.96 1.00 1.16 1.31 1.22 1.25 1.27 1.29 1.36 1.43 1.47 1.58 1.63 1.56
0.42 0.44 0.46 0.37 0.33 0.35 0.44 0.52 0.44 0.45 0.58 0.63 0.60 0.58 0.61 0.55 0.50 0.48 0.45 0.44 0.43 0.47 0.48 0.50 0.54 0.54 0.57 0.69 0.80 0.92 1.04 1.15 1.32 1.48 1.55 1.53 1.50 1.59 1.65 1.68 1.73 1.81 1.88 1.85
0.57 0.63 0.72 0.65 0.52 0.48 0.60 0.93 0.76 0.60 0.63 0.62 0.60 0.73 0.74 0.55 0.49 0.48 0.47 0.46 0.50 0.57 0.57 0.54 0.60 0.63 0.68 0.83 1.02 1.14 1.17 1.19 1.29 1.47 1.57 1.61 1.62 1.78 1.94 1.98 1.98 2.01 1.92 1.80
0.64 0.74 0.73 0.65 0.58 0.62 1.05 1.37 0.97 0.83 0.85 0.89 0.86 0.80 0.69 0.59 0.59 0.53 0.46 0.49 0.52 0.56 0.63 0.66 0.72 0.80 0.91 0.99 1.09 1.12 1.12 1.15 1.23 1.46 1.74 1.78 1.84 1.92 2.03 2.10 2.15 2.17 2.07 1.97
0.74 0.97 1.07 0.69 0.62 0.96 1.27 1.18 1.20 1.16 1.15 1.09 0.94 0.76 0.63 0.58 0.59 0.54 0.50 0.53 0.53 0.54 0.60 0.68 0.78 0.93 1.01 1.04 1.07 1.13 1.14 1.20 1.32 1.57 1.67 1.77 1.93 1.98 2.13 2.25 2.26 2.23 2.23 2.09
0.95 1.15 1.05 0.83 0.90 0.94 1.00 1.12 1.18 1.11 1.10 1.06 1.02 0.87 0.74 0.66 0.63 0.62 0.59 0.58 0.62 0.60 0.64 0.70 0.81 1.00 1.14 1.13 1.14 1.14 1.13 1.17 1.27 1.41 1.51 1.65 1.73 1.71 1.80 1.93 1.95 1.99 2.02 1.98
1.32 1.31 1.12 0.96 0.90 0.91 0.86 0.93 0.93 0.89 0.83 0.81 0.81 0.77 0.69 0.65 0.69 0.71 0.75 0.70 0.69 0.66 0.68 0.72 0.78 0.96 1.11 1.12 1.13 1.13 1.08 1.05 1.14 1.32 1.40 1.47 1.59 1.60 1.70 1.77 1.83 1.91 1.93 1.89
1.60 1.58 1.37 1.23 1.08 1.04 0.91 0.88 0.87 0.82 0.78 0.71 0.63 0.62 0.60 0.54 0.51 0.55 0.59 0.60 0.60 0.61 0.65 0.68 0.74 0.91 1.05 1.08 1.10 1.14 1.10 1.06 1.13 1.24 1.34 1.42 1.53 1.62 1.65 1.68 1.66 1.69 1.73 1.71
1.65 1.53 1.45 1.44 1.14 1.05 1.09 0.99 0.85 0.82 0.76 0.68 0.58 0.53 0.52 0.49 0.46 0.45 0.50 0.57 0.60 0.63 0.64 0.62 0.67 0.77 0.87 1.04 1.20 1.26 1.18 1.10 1.09 1.10 1.18 1.26 1.34 1.35 1.28 1.26 1.25 1.23 1.27 1.21
1.10 1.20 1.29 1.40 1.25 1.07 1.05 0.99 0.90 0.85 0.79 0.71 0.61 0.51 0.41 0.37 0.37 0.42 0.51 0.60 0.66 0.70 0.69 0.68 0.71 0.77 0.84 0.99 1.22 1.39 1.37 1.22 1.08 1.02 1.04 1.10 1.21 1.28 1.31 1.20 1.12 1.05 1.03 0.93
1.10 1.21 1.30 1.27 1.27 1.20 1.03 0.94 0.88 0.84 0.77 0.70 0.63 0.53 0.42 0.37 0.35 0.43 0.58 0.68 0.69 0.70 0.70 0.71 0.75 0.80 0.87 1.01 1.19 1.31 1.30 1.20 1.04 0.98 0.98 0.97 1.04 1.13 1.20 1.26 1.24 1.08 0.93 0.83
1.21 1.19 1.19 1.14 1.12 1.17 1.12 1.03 0.89 0.82 0.71 0.66 0.61 0.56 0.48 0.43 0.44 0.49 0.58 0.74 0.88 0.89 0.79 0.75 0.80 0.82 0.87 1.00 1.13 1.20 1.19 1.10 0.99 0.96 0.97 0.90 0.85 0.91 0.99 1.07 1.17 1.13 0.96 0.87
1.10 1.04 1.02 1.05 1.09 1.04 0.98 1.00 0.93 0.84 0.66 0.59 0.57 0.55 0.51 0.47 0.47 0.52 0.62 0.81 1.08 1.21 1.09 0.95 0.87 0.84 0.87 0.99 1.07 1.02 0.96 0.87 0.84 0.87 0.86 0.83 0.81 0.85 0.94 1.03 1.11 1.09 0.97 0.85
0.95 0.91 0.89 0.90 0.91 0.96 0.90 0.82 0.74 0.67 0.60 0.56 0.53 0.51 0.51 0.54 0.60 0.70 0.79 0.88 0.97 1.01 1.03 0.99 0.87 0.81 0.86 0.97 1.03 0.94 0.81 0.69 0.59 0.63 0.72 0.77 0.82 0.89 1.00 1.08 1.10 1.01 0.86 0.71
0.71 0.72 0.76 0.77 0.74 0.78 0.79 0.70 0.63 0.55 0.51 0.51 0.50 0.50 0.53 0.63 0.81 0.99 1.00 0.96 0.92 0.82 0.78 0.79 0.77 0.76 0.85 0.90 0.97 0.94 0.79 0.65 0.53 0.54 0.60 0.65 0.75 0.88 0.96 0.97 0.92 0.85 0.77 0.67
0.55 0.58 0.62 0.64 0.65 0.61 0.59 0.59 0.58 0.54 0.48 0.48 0.54 0.56 0.58 0.66 0.85 1.06 1.08 1.13 1.09 0.92 0.71 0.60 0.62 0.63 0.73 0.79 0.87 0.89 0.72 0.55 0.44 0.42 0.45 0.49 0.62 0.80 0.86 0.80 0.72 0.70 0.69 0.66
0.50 0.50 0.51 0.50 0.51 0.50 0.44 0.42 0.41 0.44 0.45 0.50 0.58 0.63 0.66 0.71 0.87 1.06 1.12 1.14 1.07 0.88 0.65 0.52 0.48 0.47 0.54 0.68 0.76 0.72 0.59 0.45 0.34 0.30 0.34 0.43 0.58 0.75 0.76 0.67 0.63 0.65 0.65 0.67
0.46 0.47 0.45 0.44 0.46 0.45 0.41 0.39 0.38 0.44 0.50 0.52 0.58 0.68 0.74 0.76 0.85 1.02 1.22 1.22 0.95 0.68 0.53 0.50 0.46 0.42 0.47 0.61 0.65 0.60 0.51 0.42 0.33 0.27 0.31 0.45 0.63 0.74 0.67 0.60 0.59 0.60 0.57 0.61
0.45 0.47 0.46 0.44 0.44 0.44 0.44 0.44 0.44 0.50 0.59 0.58 0.55 0.60 0.70 0.81 0.85 0.89 0.95 1.10 0.96 0.73 0.51 0.43 0.41 0.43 0.48 0.59 0.58 0.51 0.47 0.43 0.37 0.33 0.38 0.50 0.63 0.68 0.62 0.59 0.61 0.58 0.56 0.59
0.46 0.45 0.45 0.43 0.41 0.40 0.41 0.43 0.45 0.56 0.69 0.68 0.63 0.62 0.68 0.77 0.86 1.01 0.97 0.85 0.84 0.76 0.54 0.40 0.36 0.41 0.48 0.53 0.54 0.47 0.47 0.45 0.39 0.36 0.40 0.47 0.54 0.57 0.60 0.61 0.62 0.57 0.57 0.56
0.46 0.42 0.44 0.43 0.41 0.42 0.46 0.49 0.48 0.54 0.63 0.61 0.52 0.48 0.56 0.70 0.72 0.72 0.82 0.87 0.81 0.74 0.57 0.44 0.34 0.35 0.42 0.46 0.49 0.51 0.54 0.48 0.40 0.35 0.37 0.43 0.50 0.55 0.62 0.66 0.65 0.61 0.59 0.56
0.45 0.44 0.44 0.46 0.49 0.53 0.54 0.57 0.60 0.62 0.69 0.62 0.50 0.41 0.43 0.57 0.69 0.64 0.65 0.69 0.72 0.66 0.55 0.47 0.41 0.42 0.44 0.50 0.55 0.56 0.52 0.42 0.35 0.34 0.38 0.47 0.51 0.56 0.62 0.64 0.61 0.63 0.63 0.62
0.50 0.47 0.47 0.49 0.52 0.54 0.56 0.65 0.73 0.75 0.83 0.78 0.60 0.42 0.37 0.43 0.51 0.56 0.62 0.66 0.69 0.70 0.58 0.49 0.45 0.48 0.51 0.56 0.56 0.52 0.46 0.41 0.38 0.40 0.45 0.50 0.52 0.55 0.59 0.61 0.57 0.60 0.62 0.62
0.49 0.44 0.46 0.50 0.53 0.51 0.49 0.56 0.65 0.79 0.93 0.93 0.69 0.43 0.36 0.39 0.48 0.55 0.59 0.65 0.70 0.72 0.64 0.53 0.48 0.50 0.52 0.53 0.51 0.45 0.38 0.35 0.37 0.40 0.41 0.42 0.46 0.54 0.61 0.63 0.58 0.57 0.59 0.58